Probability
1 1 2 2 1 0 0 0 0 1 1 0 0 1 2 2 3 5 5 6 7 5 5 5 4 4 4 5 7 7 5 4 4 4 5 4 2 0 0 0 0 0 0
3 3 3 3 2 1 0 0 1 2 1 1 1 1 1 1 3 4 5 6 6 6 5 5 4 4 5 6 7 7 6 5 4 3 4 4 2 0 0 0 0 0 0
6 6 6 5 4 3 2 0 1 1 1 1 1 2 1 1 2 4 5 5 6 6 5 4 4 3 3 5 7 7 6 5 3 3 3 3 2 0 0 0 0 0 0
8 9 8 7 6 5 4 2 2 1 0 0 1 1 2 3 4 5 4 5 7 7 6 5 4 3 3 5 7 7 7 6 4 3 4 4 3 1 0 0 0 0 1
7 8 8 7 6 6 6 5 4 3 1 1 0 1 3 5 5 4 3 4 5 6 5 5 6 6 5 6 6 7 6 7 6 4 4 6 5 3 1 0 0 1 2
4 5 5 5 6 6 6 6 6 4 3 2 1 2 5 6 5 4 3 3 4 4 4 5 6 8 7 6 6 5 5 7 8 6 5 6 6 5 4 2 1 2 3
1 2 2 2 3 4 5 5 5 4 3 3 3 4 6 7 5 4 3 3 3 3 3 4 6 7 7 6 6 6 6 6 6 7 7 7 7 8 7 5 4 5 5
1 1 1 1 1 1 2 2 3 3 3 4 4 5 7 7 6 5 4 3 3 3 3 3 4 5 6 6 6 7 6 4 4 6 8 9 10 10 9 9 9 8 7
2 2 2 1 1 0 0 0 1 2 3 4 5 6 6 6 6 5 3 3 3 3 3 3 2 2 4 5 6 6 6 3 2 4 6 8 9 8 8 9 10 9 9
3 3 3 2 2 2 1 0 1 2 3 4 6 7 6 5 5 4 3 1 2 2 2 1 1 1 3 6 7 5 3 2 1 2 3 4 5 5 5 5 6 7 8
3 3 3 3 3 4 3 2 2 3 3 4 5 7 6 5 4 4 3 1 1 1 1 0 0 1 4 8 9 5 1 1 1 2 2 1 2 3 3 3 3 3 4
4 3 3 4 5 5 5 5 5 4 4 4 5 6 5 4 3 4 3 2 1 0 0 0 1 3 5 8 9 4 0 0 0 1 1 0 1 1 1 1 2 2 2
7 6 5 6 8 7 6 7 6 5 4 4 5 5 4 3 3 3 3 3 1 1 2 2 3 5 7 9 8 4 1 0 0 0 0 0 0 0 0 0 1 2 2
9 9 10 11 10 8 7 8 7 6 4 4 5 5 3 3 3 4 4 4 3 3 3 3 4 6 8 8 6 3 1 1 0 0 0 0 0 0 0 0 0 1 1
10 12 14 14 12 9 9 11 10 8 6 6 6 5 4 4 5 6 7 7 6 4 4 4 5 6 7 6 3 1 1 1 0 0 0 0 0 0 0 0 0 0 0
13 15 16 16 14 12 13 13 12 10 8 7 7 7 6 6 7 10 12 12 10 7 5 5 6 7 6 4 2 1 1 1 1 0 0 0 0 0 0 0 0 0 0
14 14 15 15 16 16 16 16 14 12 9 7 7 8 8 8 10 13 15 15 13 11 8 7 6 7 7 5 3 3 3 2 2 1 0 0 0 0 0 0 0 0 0
12 13 13 14 16 18 19 17 16 14 11 8 8 9 9 11 12 14 16 17 16 15 12 9 6 6 6 6 5 5 4 4 3 1 0 0 0 0 0 0 0 0 0
12 11 11 12 14 17 18 16 16 16 13 11 11 12 13 13 13 14 16 17 17 16 15 12 8 6 6 7 8 7 6 5 4 2 1 1 1 0 0 0 0 0 0
13 12 11 11 12 14 15 14 15 16 15 14 14 15 15 13 13 13 15 16 16 16 16 14 12 9 9 10 10 9 8 7 7 6 4 3 3 2 1 0 0 0 0
15 14 13 12 13 13 13 13 14 15 15 15 16 16 15 13 12 11 11 12 14 15 14 14 12 11 11 11 10 10 9 9 9 9 7 5 5 5 3 2 1 0 0
16 15 14 15 15 13 12 11 12 13 15 16 16 15 14 13 11 9 7 7 8 10 11 12 12 10 10 9 9 9 9 10 10 9 7 6 6 6 6 5 3 1 0
16 16 16 16 15 13 10 8 8 11 15 17 17 16 14 13 12 10 7 5 5 5 7 11 12 10 9 8 7 8 9 9 10 9 7 6 6 6 6 6 3 1 0
17 16 16 16 14 12 8 4 6 10 15 17 17 15 14 13 12 11 11 9 7 5 6 8 10 9 9 8 7 7 7 8 9 8 7 6 6 6 6 5 3 1 0
18 17 16 15 14 11 7 3 5 12 16 17 16 14 13 13 11 10 11 12 10 8 6 6 6 6 7 7 6 6 7 7 7 7 7 7 7 7 7 6 4 1 0
18 17 16 15 14 12 8 4 6 12 17 17 16 14 13 12 9 8 11 13 12 9 6 5 4 4 5 5 4 5 6 6 6 6 6 7 9 8 7 6 4 2 1
Wind_Speed
1 1 1 1 2 1 0 0 1 1 1 1 1 2 2 2 1 1 3 7 6 6 7 7 7 7 6 7 7 6 6 6 6 6 6 6 7 7 7 6 6 6 6
1 2 1 1 1 1 1 1 1 1 1 1 2 2 2 1 1 0 1 4 7 7 7 6 6 6 6 6 6 6 6 6 6 6 6 7 7 7 7 6 7 6 6
1 2 1 1 1 1 0 0 0 0 0 1 1 2 1 2 2 1 1 1 3 7 8 7 6 6 6 5 5 5 6 6 6 6 6 7 7 7 7 7 7 7 6
2 2 1 1 1 1 1 0 1 1 1 1 1 2 1 1 1 1 1 1 0 1 6 7 5 5 5 5 5 5 6 6 7 6 6 6 7 7 8 8 7 7 7
2 2 1 1 1 1 1 1 1 1 1 1 1 0 1 1 1 1 1 1 2 1 1 5 6 4 4 5 4 4 5 5 5 5 5 6 6 6 7 7 7 7 7
2 2 1 1 2 1 1 0 1 1 1 1 1 1 1 0 0 1 1 1 2 1 1 1 3 4 6 4 4 4 4 4 4 5 5 6 6 7 7 7 7 7 6
1 2 2 1 2 1 1 2 1 2 2 1 2 1 1 1 1 1 1 1 2 2 2 1 0 1 3 6 5 4 3 4 4 5 6 6 6 7 7 8 8 7 7
2 2 2 2 2 1 2 2 2 2 2 1 2 2 2 3 2 1 1 2 1 1 1 1 1 1 1 1 5 5 3 3 3 4 5 6 6 6 7 8 8 7 7
2 2 2 2 2 3 2 2 3 3 3 2 2 3 2 1 1 2 2 1 1 1 1 1 1 0 0 0 2 5 4 3 3 3 5 6 6 6 7 8 7 7 7
2 2 2 2 3 2 2 3 2 3 3 3 2 2 2 2 2 1 2 2 2 1 0 0 0 1 0 0 2 4 4 3 3 3 3 6 6 6 6 7 7 7 6
1 2 2 2 2 2 2 3 2 3 3 3 2 1 1 2 3 2 0 0 1 1 0 0 0 0 0 0 1 4 4 3 2 2 3 4 5 6 6 6 6 6 6
1 1 2 2 2 2 2 3 3 3 3 3 3 2 2 2 2 2 1 1 0 0 0 0 1 0 0 1 2 6 4 3 2 2 3 4 4 5 5 6 6 6 6
1 1 2 2 2 2 2 2 2 3 2 2 3 2 2 3 2 2 2 1 1 1 1 1 0 0 0 1 3 5 5 4 3 3 3 4 4 4 4 5 5 5 5
1 1 2 2 2 2 2 1 2 2 1 2 2 2 2 2 2 2 2 2 2 2 2 1 1 1 1 1 3 3 4 5 3 3 3 3 4 4 4 4 4 4 4
1 1 1 1 1 1 2 1 1 1 1 2 1 2 2 1 1 1 2 3 3 2 1 1 1 2 1 1 2 1 2 5 4 3 3 3 3 4 3 3 3 3 3
1 1 1 1 1 1 1 1 1 1 1 1 0 0 1 1 1 1 2 2 2 3 2 0 0 1 1 1 2 2 2 6 4 3 3 3 4 4 4 3 3 3 3
1 1 1 1 1 1 1 1 1 1 1 1 1 1 1 1 1 1 1 1 1 1 2 1 0 2 2 1 1 1 2 2 4 4 4 4 4 4 4 4 4 3 3
1 1 2 2 2 1 1 2 2 2 2 1 1 1 1 1 1 1 1 1 1 2 2 2 1 1 1 2 2 2 2 2 2 6 5 4 4 4 4 4 4 3 3
2 2 2 2 2 1 1 1 2 2 2 2 1 1 1 1 1 0 1 1 1 1 1 2 1 0 1 1 2 2 2 1 2 6 7 6 5 5 5 4 4 4 3
2 2 1 2 2 2 2 2 2 2 2 2 2 1 1 1 1 2 1 1 1 1 1 2 2 1 1 1 2 2 2 2 2 2 3 4 6 7 6 5 5 4 4
2 2 2 1 1 2 1 1 2 2 2 2 2 2 1 0 1 1 1 1 1 2 2 2 2 1 1 1 2 2 2 2 2 2 2 3 4 4 5 7 6 5 4
2 2 1 1 1 0 2 1 2 2 2 2 2 2 2 3 3 3 2 1 2 3 3 2 2 2 2 2 1 2 2 2 2 1 2 2 2 3 3 3 6 7 6
2 1 1 1 1 0 1 1 1 2 2 2 2 2 2 1 3 3 4 5 4 3 4 4 3 3 3 2 2 3 2 3 3 1 3 3 3 3 3 3 8 7 6
1 1 1 1 1 0 1 0 1 3 2 3 3 3 2 2 2 2 2 2 3 3 4 4 3 3 3 2 3 3 3 3 4 3 3 3 2 3 3 3 9 9 8
1 1 1 2 1 1 1 1 2 2 2 3 3 3 3 3 1 1 3 3 3 3 3 3 3 3 3 3 3 3 3 3 3 2 2 3 3 3 3 4 6 10 10
1 1 1 1 1 1 1 1 3 3 2 3 3 3 3 3 2 2 4 4 4 3 3 3 4 5 5 5 6 5 4 4 3 2 2 3 3 3 3 3 3 5 6
Wind_Direction
330 340 354 338 327 359 65 74 54 65 37 41 8 19 14 24 41 83 129 142 161 180 184 187 190 192 193 187 184 187 190 194 196 202 205 205 202 199 193 192 191 191 189
334 321 324 322 323 338 359 356 36 53 34 22 13 12 5 16 49 328 183 156 168 178 184 186 190 191 191 187 187 189 188 192 204 214 213 204 199 193 191 194 196 197 194
302 297 291 282 318 329 292 265 340 13 50 28 9 1 356 0 21 12 338 287 169 172 179 184 192 194 192 187 190 193 193 197 204 215 217 201 194 193 197 198 195 195 194
293 288 303 305 315 287 291 277 282 19 33 1 354 345 348 1 358 6 352 15 4 164 160 166 185 189 192 197 206 206 204 206 208 211 207 202 200 202 201 199 199 199 196
288 284 298 329 270 270 298 294 36 349 6 339 313 306 319 329 340 359 17 32 51 55 100 136 153 168 185 192 194 192 200 203 201 201 201 201 199 198 196 193 195 195 194
282 284 251 264 268 259 261 316 310 298 289 274 295 344 307 306 324 27 12 73 77 90 84 93 158 160 164 174 181 180 189 195 199 198 197 200 199 192 189 189 190 188 188
276 272 283 231 255 246 273 263 252 227 240 239 242 219 163 163 142 147 99 68 86 88 93 97 109 98 155 165 176 186 195 195 196 197 197 198 194 188 185 185 184 183 182
275 248 263 258 245 238 241 262 271 269 259 261 283 270 200 164 161 128 126 125 99 103 102 111 112 126 278 178 139 157 173 179 186 194 198 187 180 183 183 183 183 183 182
262 282 271 268 262 257 250 253 252 255 267 258 276 295 302 27 97 139 128 116 109 92 90 101 131 132 264 186 146 145 154 167 175 182 191 180 176 178 181 182 182 182 182
267 263 268 261 267 267 259 251 243 268 271 269 237 257 300 329 300 153 153 131 126 113 61 346 86 130 152 165 114 94 111 129 159 175 181 178 175 174 174 174 177 173 172
260 272 265 263 258 264 273 282 274 272 267 276 276 252 237 238 246 261 239 138 149 114 83 247 289 31 83 189 150 104 110 117 126 153 167 172 172 171 172 170 169 168 170
243 260 259 258 257 270 265 265 263 253 271 288 284 267 252 249 234 246 228 228 245 71 46 265 252 221 178 163 107 94 102 113 123 129 143 156 159 161 164 165 167 170 173
251 267 278 268 269 266 265 263 257 275 263 267 269 272 277 281 275 250 243 256 264 235 186 203 226 249 164 142 116 120 117 117 119 120 127 142 154 158 164 166 172 176 178
292 307 268 264 270 269 262 244 245 241 236 247 262 274 271 281 282 262 247 248 245 227 203 190 172 156 88 100 97 156 129 127 127 127 133 145 156 158 162 167 168 169 170
260 238 261 261 263 257 257 248 266 253 222 225 208 198 237 230 253 260 254 259 258 253 241 168 197 143 152 119 118 148 120 120 127 128 133 142 159 160 157 157 159 164 168
289 261 251 252 258 253 246 243 216 172 182 191 200 41 275 231 219 242 259 266 265 266 271 100 152 117 104 114 123 133 119 126 118 134 135 135 145 152 153 151 150 154 162
250 234 249 248 241 226 203 200 224 169 184 183 188 169 209 308 283 257 243 246 250 251 236 246 146 120 133 127 124 158 160 161 132 136 143 144 140 136 133 131 132 134 143
229 221 230 230 231 212 191 195 209 198 193 185 175 181 215 192 218 278 285 272 260 258 242 229 238 166 158 173 179 199 172 158 147 133 146 152 149 142 137 137 138 139 138
217 220 211 217 216 193 186 192 201 203 204 202 198 199 222 225 238 258 285 284 265 231 236 221 229 213 193 191 193 187 170 191 187 152 158 167 165 161 159 158 158 155 155
197 195 196 209 215 210 192 191 197 200 205 204 202 212 220 226 237 233 223 249 268 248 219 229 218 204 194 196 216 208 198 197 207 181 165 170 166 173 174 175 175 172 177
192 178 183 190 211 225 225 210 201 199 212 217 215 217 209 148 21 306 295 288 268 256 235 225 224 227 212 220 238 241 233 229 202 205 202 193 184 192 186 186 187 185 191
198 186 197 205 213 239 39 358 269 214 214 222 230 227 202 186 174 179 192 258 290 271 279 274 258 261 255 252 258 254 256 253 241 189 242 228 211 216 208 200 166 175 190
192 196 210 222 229 91 70 64 283 250 231 237 243 247 247 192 202 200 187 195 207 228 247 268 272 276 264 261 262 253 257 278 290 267 253 246 229 234 225 166 160 178 191
203 203 214 218 233 122 97 179 260 243 248 241 241 241 241 237 215 237 236 227 226 220 227 233 254 271 281 278 262 265 260 248 249 235 246 257 241 246 236 190 169 183 196
204 217 216 231 239 196 140 226 257 243 238 247 247 242 239 233 162 220 237 239 246 241 212 216 236 255 274 259 265 258 248 241 243 237 230 263 261 257 241 212 176 185 198
220 230 214 241 254 258 181 212 249 248 237 238 231 231 222 222 184 210 238 242 244 251 257 229 218 222 227 215 214 237 254 251 260 248 208 251 257 260 245 216 204 195 205